Peru, IN

5:52 PM EDT on March 25, 2017 (GMT -0400)
Grissom Air Reserve Base

Weather History for KGUS - November, 2012

Change the Weather History Date:

Wednesday, November 7, 2012

  Actual Average Record
Temperature  
Mean Temperature 42 °F -  
Max Temperature 49 °F 50 °F 69 °F (2001)
Min Temperature 34 °F 35 °F 24 °F (1998)
Degree Days  
Heating Degree Days 23    
Moisture  
Dew Point 36 °F    
Average Humidity 85    
Maximum Humidity 98    
Minimum Humidity 53    
Precipitation  
Precipitation 0.01 in - - ()
Sea Level Pressure  
Sea Level Pressure 29.98 in    
Wind  
Wind Speed 2 mph (NE)    
Max Wind Speed 10 mph    
Max Gust Speed -    
Visibility 7 miles    
Events Rain    
Averages and records for this station are not official NWS values.
T = Trace of Precipitation, MM = Missing Value Source: NWS Daily Summary

Daily Weather History Graph

Daily Weather History Graph

Search for Another Location

Airport or City:

Trip Planner

Search our weather history database for the weather conditions in past years. The results will help you decide how hot, cold, wet, or windy it might be!

Date:

Astronomy

Nov. 07, 2012 Rise Set
Actual Time 7:22 AM EST 5:33 PM EST
Civil Twilight 6:53 AM EST 6:02 PM EST
Nautical Twilight 6:20 AM EST 6:35 PM EST
Astronomical Twilight 5:48 AM EST 7:07 PM EST
Moon 12:13 AM EST (11/7) 1:44 PM EST (11/7)
Length of Visible Light 11h 08m
Length of Day
10h 11m
Last Quarter, 43% of the Moon is Illuminated
Nov 7
Last Quarter
Nov 13
New
Nov 20
First Quarter
Nov 28
Full
Dec 6
Last Quarter

Hourly Weather History & Observations

Time (EST) Temp. Windchill Dew Point Humidity Pressure Visibility Wind Dir Wind Speed Gust Speed Precip Events Conditions
12:19 AM 39.2 °F - 37.4 °F 93% 29.93 in 5.0 mi Calm Calm - N/A   Light Drizzle
12:22 AM 39.2 °F - 37.4 °F 93% 29.93 in 4.0 mi Calm Calm - N/A   Light Drizzle
12:26 AM 39.2 °F - 37.4 °F 93% 29.93 in 4.0 mi Calm Calm - N/A   Mostly Cloudy
12:39 AM 39.2 °F - 37.4 °F 93% 29.92 in 4.0 mi Calm Calm - N/A Rain Light Rain
12:41 AM 39.2 °F - 37.4 °F 93% 29.92 in 5.0 mi Calm Calm - N/A Rain Light Rain
12:53 AM 39.2 °F - 37.4 °F 93% 29.92 in 6.0 mi Calm Calm - N/A   Mostly Cloudy
12:55 AM 38.8 °F - 37.8 °F 96% 29.92 in 6.0 mi Calm Calm - 0.00 in   Mostly Cloudy
12:58 AM 39.2 °F - 37.4 °F 93% 29.92 in 6.0 mi Calm Calm - N/A   Scattered Clouds
12:59 AM 39.2 °F - 37.4 °F 93% 29.92 in 6.0 mi Calm Calm - N/A   Light Drizzle
1:04 AM 39.2 °F - 37.4 °F 93% 29.92 in 5.0 mi Calm Calm - N/A   Light Drizzle
1:07 AM 39.2 °F - 37.4 °F 93% 29.92 in 5.0 mi Calm Calm - N/A   Light Drizzle
1:11 AM 39.2 °F - 37.4 °F 93% 29.92 in 5.0 mi Calm Calm - N/A   Mostly Cloudy
1:16 AM 39.2 °F - 37.4 °F 93% 29.92 in 4.0 mi Calm Calm - N/A   Mostly Cloudy
1:55 AM 38.5 °F - 37.9 °F 98% 29.91 in 4.0 mi Calm Calm - 0.00 in   Partly Cloudy
2:00 AM 39.2 °F - 37.4 °F 93% 29.91 in 4.0 mi Calm Calm - N/A   Partly Cloudy
2:16 AM 39.2 °F 37.0 °F 37.4 °F 93% 29.91 in 3.0 mi NE 3.5 mph - N/A   Scattered Clouds
2:55 AM 38.3 °F - 37.8 °F 98% 29.92 in 4.0 mi Calm Calm - 0.00 in   Overcast
3:23 AM 39.2 °F - 37.4 °F 93% 29.92 in 2.5 mi Calm Calm - N/A   Overcast
3:38 AM 39.2 °F - 37.4 °F 93% 29.92 in 3.0 mi Calm Calm - N/A   Overcast
3:55 AM 38.5 °F 36.1 °F 37.9 °F 98% 29.92 in 4.0 mi ENE 3.5 mph - N/A   Overcast
4:01 AM 39.2 °F 35.9 °F 37.4 °F 93% 29.92 in 4.0 mi ENE 4.6 mph - N/A   Overcast
4:20 AM 39.2 °F 37.0 °F 37.4 °F 93% 29.92 in 4.0 mi NE 3.5 mph - N/A   Light Drizzle
4:24 AM 39.2 °F 35.9 °F 37.4 °F 93% 29.92 in 4.0 mi ENE 4.6 mph - N/A   Mostly Cloudy
4:26 AM 39.2 °F 35.9 °F 37.4 °F 93% 29.92 in 5.0 mi ENE 4.6 mph - N/A   Mostly Cloudy
4:28 AM 39.2 °F 35.9 °F 37.4 °F 93% 29.92 in 5.0 mi ENE 4.6 mph - N/A   Mostly Cloudy
4:29 AM 39.2 °F 35.9 °F 37.4 °F 93% 29.92 in 5.0 mi ENE 4.6 mph - N/A   Light Drizzle
4:55 AM 38.1 °F 33.7 °F 36.9 °F 95% 29.92 in 7.0 mi ENE 5.8 mph - 0.00 in   Light Drizzle
5:16 AM 37.4 °F 32.8 °F 35.6 °F 93% 29.93 in 7.0 mi ENE 5.8 mph - N/A   Mostly Cloudy
5:29 AM 37.4 °F 32.8 °F 35.6 °F 93% 29.93 in 8.0 mi ENE 5.8 mph - N/A   Light Drizzle
5:55 AM 37.6 °F 33.1 °F 35.8 °F 93% 29.93 in 8.0 mi ENE 5.8 mph - 0.00 in   Light Drizzle
6:02 AM 37.4 °F 32.1 °F 35.6 °F 93% 29.94 in 8.0 mi ENE 6.9 mph - N/A   Clear
6:10 AM 37.4 °F 33.8 °F 35.6 °F 93% 29.94 in 8.0 mi ENE 4.6 mph - N/A   Light Drizzle
6:55 AM 37.0 °F 32.4 °F 35.2 °F 93% 29.95 in 7.0 mi NE 5.8 mph - 0.01 in   Light Drizzle
7:55 AM 37.0 °F 31.6 °F 34.7 °F 91% 29.98 in 6.0 mi NE 6.9 mph - 0.00 in   Light Drizzle
8:30 AM 37.4 °F 32.1 °F 35.6 °F 93% 30.00 in 7.0 mi ENE 6.9 mph - N/A   Overcast
8:55 AM 37.8 °F 32.5 °F 34.9 °F 89% 30.01 in 9.0 mi ENE 6.9 mph - 0.00 in   Overcast
9:55 AM 40.3 °F 34.9 °F 35.1 °F 82% 30.02 in 10.0 mi ENE 8.1 mph - N/A   Overcast
10:30 AM 42.8 °F 37.0 °F 35.6 °F 76% 30.02 in 10.0 mi ENE 10.4 mph - N/A   Scattered Clouds
10:55 AM 43.9 °F 38.3 °F 33.6 °F 67% 30.03 in 10.0 mi ENE 10.4 mph - N/A   Clear
11:55 AM 45.5 °F 41.8 °F 31.8 °F 59% 30.05 in 10.0 mi Variable 6.9 mph - N/A   Overcast
12:55 PM 47.5 °F - 32.5 °F 56% 30.04 in 10.0 mi NNE 8.1 mph - N/A   Clear
1:55 PM 49.1 °F - 34.2 °F 56% 30.04 in 10.0 mi Variable 6.9 mph - N/A   Clear
2:55 PM 48.9 °F - 33.4 °F 55% 30.04 in 10.0 mi NE 9.2 mph - N/A   Clear
3:55 PM 48.7 °F - 32.2 °F 53% 30.05 in 10.0 mi NNE 5.8 mph - N/A   Clear
4:55 PM 46.6 °F - 32.7 °F 59% 30.08 in 10.0 mi North 4.6 mph - N/A   Clear
5:55 PM 45.9 °F 44.6 °F 32.0 °F 58% 30.09 in 10.0 mi NNW 3.5 mph - N/A   Mostly Cloudy
6:55 PM 43.7 °F 42.1 °F 32.0 °F 63% 30.11 in 10.0 mi NNW 3.5 mph - N/A   Clear
7:55 PM 39.2 °F 37.0 °F 32.2 °F 76% 30.11 in 7.0 mi North 3.5 mph - N/A   Clear
8:55 PM 39.7 °F 36.5 °F 31.1 °F 71% 30.14 in 10.0 mi NW 4.6 mph - N/A   Clear
9:55 PM 35.6 °F 31.7 °F 31.3 °F 84% 30.15 in 10.0 mi NW 4.6 mph - N/A   Clear
10:55 PM 36.7 °F 32.0 °F 31.1 °F 80% 30.15 in 10.0 mi NW 5.8 mph - N/A   Clear
11:55 PM 34.2 °F 31.2 °F 30.7 °F 87% 30.16 in 10.0 mi NNW 3.5 mph - N/A   Clear